| time (UTC) | temp F | wind direction | speed MPH | gust MPH | rain 1hr in | rain 24hr in | rain mn in | humidity % | barometer mb |
| 20260509200737 | 62 | 137 | 10.0 | 15.0 | 0.00 | 0.00 | 0.00 | 99 | 1019.2 |
| 20260509200233 | 64 | 73 | 11.0 | 16.0 | 0.00 | 0.00 | 0.00 | 99 | 1018.9 |
| 20260509195729 | 64 | 73 | 11.0 | 16.0 | 0.00 | 0.00 | 0.00 | 99 | 1018.9 |
| 20260509195224 | 68 | 43 | 5.0 | 9.0 | 0.00 | 0.00 | 0.00 | 99 | 1018.9 |
| 20260509194719 | 68 | 43 | 5.0 | 9.0 | 0.00 | 0.00 | 0.00 | 99 | 1018.9 |
| 20260509194215 | 65 | 174 | 7.0 | 9.0 | 0.00 | 0.00 | 0.00 | 99 | 1018.9 |
| 20260509193712 | 65 | 174 | 7.0 | 9.0 | 0.00 | 0.00 | 0.00 | 99 | 1018.9 |
| 20260509193212 | 66 | 298 | 4.0 | 6.0 | 0.00 | 0.00 | 0.00 | 99 | 1019.1 |
| 20260509192708 | 66 | 298 | 4.0 | 6.0 | 0.00 | 0.00 | 0.00 | 99 | 1019.1 |
| 20260509192204 | 64 | 64 | 8.0 | 11.0 | 0.00 | 0.00 | 0.00 | 99 | 1019.4 |
| 20260509191659 | 64 | 64 | 8.0 | 11.0 | 0.00 | 0.00 | 0.00 | 99 | 1019.4 |
| 20260509191155 | 62 | 116 | 3.0 | 4.0 | 0.00 | 0.00 | 0.00 | 99 | 1019.2 |
| 20260509190652 | 62 | 116 | 3.0 | 4.0 | 0.00 | 0.00 | 0.00 | 99 | 1019.2 |
| 20260509190149 | 64 | 342 | 4.0 | 7.0 | 0.00 | 0.00 | 0.00 | 99 | 1019.1 |
| 20260509185647 | 64 | 342 | 4.0 | 7.0 | 0.00 | 0.00 | 0.00 | 99 | 1019.1 |
| 20260509185143 | 64 | 145 | 4.0 | 6.0 | 0.00 | 0.00 | 0.00 | 99 | 1019.2 |
| 20260509184641 | 64 | 145 | 4.0 | 6.0 | 0.00 | 0.00 | 0.00 | 99 | 1019.2 |
| 20260509184137 | 64 | 113 | 8.0 | 13.0 | 0.00 | 0.00 | 0.00 | 99 | 1019.4 |
| 20260509183634 | 64 | 113 | 8.0 | 13.0 | 0.00 | 0.00 | 0.00 | 99 | 1019.4 |
| 20260509183129 | 61 | 294 | 3.0 | 3.0 | 0.00 | 0.00 | 0.00 | 99 | 1019.3 |
| 20260509182625 | 61 | 294 | 3.0 | 3.0 | 0.00 | 0.00 | 0.00 | 99 | 1019.3 |
| 20260509182122 | 64 | 126 | 9.0 | 10.0 | 0.00 | 0.00 | 0.00 | 99 | 1019.6 |
| 20260509181620 | 64 | 126 | 9.0 | 10.0 | 0.00 | 0.00 | 0.00 | 99 | 1019.6 |
| 20260509181118 | 64 | 199 | 5.0 | 8.0 | 0.00 | 0.00 | 0.00 | 99 | 1019.6 |
| 20260509180614 | 64 | 199 | 5.0 | 8.0 | 0.00 | 0.00 | 0.00 | 99 | 1019.6 |
| 20260509180111 | 62 | 44 | 12.0 | 14.0 | 0.00 | 0.00 | 0.00 | 99 | 1019.6 |
| 20260509175606 | 62 | 44 | 12.0 | 14.0 | 0.00 | 0.00 | 0.00 | 99 | 1019.6 |
| 20260509175103 | 62 | 122 | 14.0 | 17.0 | 0.00 | 0.00 | 0.00 | 99 | 1019.7 |
| 20260509174554 | 62 | 122 | 14.0 | 17.0 | 0.00 | 0.00 | 0.00 | 99 | 1019.7 |
| 20260509174049 | 60 | 197 | 3.0 | 6.0 | 0.00 | 0.00 | 0.00 | 99 | 1019.4 |
| 20260509173550 | 60 | 197 | 3.0 | 6.0 | 0.00 | 0.00 | 0.00 | 99 | 1019.4 |
| 20260509173046 | 60 | 107 | 7.0 | 9.0 | 0.00 | 0.00 | 0.00 | 99 | 1019.6 |
| 20260509172544 | 60 | 107 | 7.0 | 9.0 | 0.00 | 0.00 | 0.00 | 99 | 1019.6 |
| 20260509172039 | 60 | 76 | 9.0 | 14.0 | 0.00 | 0.00 | 0.00 | 99 | 1019.4 |
| 20260509171535 | 60 | 76 | 9.0 | 14.0 | 0.00 | 0.00 | 0.00 | 99 | 1019.4 |
| 20260509171032 | 59 | 94 | 14.0 | 15.0 | 0.00 | 0.00 | 0.00 | 99 | 1019.2 |
| 20260509170527 | 59 | 94 | 14.0 | 15.0 | 0.00 | 0.00 | 0.00 | 99 | 1019.2 |
| 20260509170023 | 59 | 106 | 15.0 | 18.0 | 0.00 | 0.00 | 0.00 | 99 | 1019.2 |
| 20260509165522 | 59 | 106 | 15.0 | 18.0 | 0.00 | 0.00 | 0.00 | 99 | 1019.2 |
| 20260509165018 | 60 | 139 | 8.0 | 13.0 | 0.00 | 0.00 | 0.00 | 99 | 1019.1 |
| 20260509164514 | 60 | 139 | 8.0 | 13.0 | 0.00 | 0.00 | 0.00 | 99 | 1019.1 |
| 20260509164009 | 59 | 117 | 16.0 | 21.0 | 0.00 | 0.00 | 0.00 | 99 | 1019.1 |
| 20260509163508 | 59 | 117 | 16.0 | 21.0 | 0.00 | 0.00 | 0.00 | 99 | 1019.1 |
| 20260509163002 | 58 | 179 | 22.0 | 24.0 | 0.00 | 0.00 | 0.00 | 99 | 1018.9 |
| 20260509162500 | 58 | 179 | 22.0 | 24.0 | 0.00 | 0.00 | 0.00 | 99 | 1018.9 |
| 20260509161956 | 59 | 134 | 16.0 | 17.0 | 0.00 | 0.00 | 0.00 | 99 | 1019.1 |
| 20260509161453 | 59 | 134 | 16.0 | 17.0 | 0.00 | 0.00 | 0.00 | 99 | 1019.1 |
| 20260509160947 | 59 | 161 | 15.0 | 19.0 | 0.00 | 0.00 | 0.00 | 99 | 1019.2 |
| 20260509160444 | 59 | 161 | 15.0 | 19.0 | 0.00 | 0.00 | 0.00 | 99 | 1019.2 |
| 20260509155944 | 59 | 100 | 6.0 | 8.0 | 0.00 | 0.00 | 0.00 | 99 | 1019.1 |
| 20260509155441 | 59 | 100 | 6.0 | 8.0 | 0.00 | 0.00 | 0.00 | 99 | 1019.1 |
| 20260509154937 | 57 | 95 | 8.0 | 10.0 | 0.00 | 0.00 | 0.00 | 99 | 1019.1 |
| 20260509154434 | 57 | 95 | 8.0 | 10.0 | 0.00 | 0.00 | 0.00 | 99 | 1019.1 |
| 20260509153931 | 57 | 107 | 8.0 | 10.0 | 0.00 | 0.00 | 0.00 | 99 | 1019.1 |
| 20260509153428 | 57 | 107 | 8.0 | 10.0 | 0.00 | 0.00 | 0.00 | 99 | 1019.1 |
| 20260509152925 | 57 | 33 | 7.0 | 8.0 | 0.00 | 0.00 | 0.00 | 99 | 1018.9 |
| 20260509152421 | 57 | 33 | 7.0 | 8.0 | 0.00 | 0.00 | 0.00 | 99 | 1018.9 |
| 20260509151918 | 57 | 106 | 15.0 | 19.0 | 0.00 | 0.00 | 0.00 | 99 | 1018.7 |
| 20260509151414 | 57 | 106 | 15.0 | 19.0 | 0.00 | 0.00 | 0.00 | 99 | 1018.7 |
| 20260509150912 | 57 | 93 | 5.0 | 7.0 | 0.00 | 0.00 | 0.00 | 99 | 1018.9 |
| 20260509150409 | 57 | 93 | 5.0 | 7.0 | 0.00 | 0.00 | 0.00 | 99 | 1018.9 |
| 20260509145908 | 57 | 47 | 3.0 | 3.0 | 0.00 | 0.00 | 0.00 | 99 | 1018.8 |
| 20260509145407 | 57 | 47 | 3.0 | 3.0 | 0.00 | 0.00 | 0.00 | 99 | 1018.8 |
| 20260509144903 | 56 | 95 | 4.0 | 6.0 | 0.00 | 0.00 | 0.00 | 99 | 1018.9 |
| 20260509144400 | 56 | 95 | 4.0 | 6.0 | 0.00 | 0.00 | 0.00 | 99 | 1018.9 |
| 20260509143857 | 55 | 144 | 9.0 | 10.0 | 0.00 | 0.00 | 0.00 | 99 | 1018.9 |
| 20260509143355 | 55 | 144 | 9.0 | 10.0 | 0.00 | 0.00 | 0.00 | 99 | 1018.9 |
| 20260509142851 | 55 | 140 | 1.0 | 2.0 | 0.00 | 0.00 | 0.00 | 99 | 1018.9 |
| 20260509142347 | 55 | 140 | 1.0 | 2.0 | 0.00 | 0.00 | 0.00 | 99 | 1018.9 |
| 20260509141843 | 54 | 146 | 0.0 | 1.0 | 0.00 | 0.00 | 0.00 | 99 | 1018.7 |
| 20260509141340 | 55 | 142 | 2.0 | 2.0 | 0.00 | 0.00 | 0.00 | 99 | 1018.8 |
| 20260509140836 | 55 | 142 | 2.0 | 2.0 | 0.00 | 0.00 | 0.00 | 99 | 1018.8 |
| 20260509140334 | 55 | 91 | 1.0 | 2.0 | 0.00 | 0.00 | 0.00 | 99 | 1018.6 |
| 20260509135832 | 55 | 91 | 1.0 | 2.0 | 0.00 | 0.00 | 0.00 | 99 | 1018.6 |
| 20260509135329 | 55 | 72 | 0.0 | 0.0 | 0.00 | 0.00 | 0.00 | 99 | 1018.7 |
| 20260509134826 | 55 | 72 | 0.0 | 0.0 | 0.00 | 0.00 | 0.00 | 99 | 1018.7 |
| 20260509134323 | 53 | 85 | 1.0 | 2.0 | 0.00 | 0.00 | 0.00 | 99 | 1018.8 |
| 20260509133820 | 53 | 85 | 1.0 | 2.0 | 0.00 | 0.00 | 0.00 | 99 | 1018.8 |
| 20260509133316 | 52 | 125 | 2.0 | 2.0 | 0.00 | 0.00 | 0.00 | 99 | 1018.7 |
| 20260509132815 | 52 | 125 | 2.0 | 2.0 | 0.00 | 0.00 | 0.00 | 99 | 1018.7 |
| 20260509132314 | 51 | 91 | 3.0 | 3.0 | 0.00 | 0.00 | 0.00 | 99 | 1018.6 |
| 20260509131810 | 51 | 91 | 3.0 | 3.0 | 0.00 | 0.00 | 0.00 | 99 | 1018.6 |
| 20260509131307 | 51 | 147 | 3.0 | 4.0 | 0.00 | 0.00 | 0.00 | 99 | 1018.6 |
| 20260509130803 | 51 | 147 | 3.0 | 4.0 | 0.00 | 0.00 | 0.00 | 99 | 1018.6 |
| 20260509130259 | 51 | 94 | 7.0 | 9.0 | 0.00 | 0.00 | 0.00 | 99 | 1018.4 |
| 20260509125756 | 51 | 94 | 7.0 | 9.0 | 0.00 | 0.00 | 0.00 | 99 | 1018.4 |
| 20260509125252 | 50 | 92 | 2.0 | 2.0 | 0.00 | 0.00 | 0.00 | 99 | 1018.4 |
| 20260509124749 | 50 | 92 | 2.0 | 2.0 | 0.00 | 0.00 | 0.00 | 99 | 1018.4 |
| 20260509124245 | 51 | 91 | 4.0 | 4.0 | 0.00 | 0.00 | 0.00 | 99 | 1018.2 |
| 20260509123744 | 51 | 91 | 4.0 | 4.0 | 0.00 | 0.00 | 0.00 | 99 | 1018.2 |
| 20260509123241 | 50 | 149 | 1.0 | 1.0 | 0.00 | 0.00 | 0.00 | 99 | 1018.1 |
| 20260509122736 | 50 | 149 | 1.0 | 1.0 | 0.00 | 0.00 | 0.00 | 99 | 1018.1 |
| 20260509122233 | 50 | 77 | 2.0 | 3.0 | 0.00 | 0.00 | 0.00 | 99 | 1018.1 |
| 20260509121730 | 50 | 77 | 2.0 | 3.0 | 0.00 | 0.00 | 0.00 | 99 | 1018.1 |
| 20260509121227 | 50 | 75 | 5.0 | 6.0 | 0.00 | 0.00 | 0.00 | 99 | 1017.8 |
| 20260509120726 | 50 | 75 | 5.0 | 6.0 | 0.00 | 0.00 | 0.00 | 99 | 1017.8 |
| 20260509120223 | 51 | 101 | 6.0 | 8.0 | 0.00 | 0.00 | 0.00 | 99 | 1017.8 |
| 20260509115721 | 51 | 101 | 6.0 | 8.0 | 0.00 | 0.00 | 0.00 | 99 | 1017.8 |
| 20260509115218 | 50 | 80 | 8.0 | 9.0 | 0.00 | 0.00 | 0.00 | 99 | 1017.7 |
| 20260509114716 | 50 | 80 | 8.0 | 9.0 | 0.00 | 0.00 | 0.00 | 99 | 1017.7 |
| 20260509114214 | 51 | 83 | 10.0 | 11.0 | 0.00 | 0.00 | 0.00 | 99 | 1017.4 |
| 20260509113713 | 51 | 83 | 10.0 | 11.0 | 0.00 | 0.00 | 0.00 | 99 | 1017.4 |
| 20260509113210 | 50 | 93 | 9.0 | 10.0 | 0.00 | 0.00 | 0.00 | 99 | 1017.4 |
| 20260509112706 | 50 | 93 | 9.0 | 10.0 | 0.00 | 0.00 | 0.00 | 99 | 1017.4 |
| 20260509112203 | 51 | 65 | 11.0 | 13.0 | 0.00 | 0.00 | 0.00 | 99 | 1017.3 |
| 20260509111700 | 51 | 65 | 11.0 | 13.0 | 0.00 | 0.00 | 0.00 | 99 | 1017.3 |
| 20260509111157 | 52 | 97 | 13.0 | 14.0 | 0.00 | 0.00 | 0.00 | 99 | 1017.2 |
| 20260509110654 | 52 | 97 | 13.0 | 14.0 | 0.00 | 0.00 | 0.00 | 99 | 1017.2 |
| 20260509110151 | 51 | 108 | 10.0 | 13.0 | 0.00 | 0.00 | 0.00 | 99 | 1017.2 |
| 20260509105649 | 51 | 108 | 10.0 | 13.0 | 0.00 | 0.00 | 0.00 | 99 | 1017.2 |
| 20260509105146 | 51 | 115 | 18.0 | 22.0 | 0.00 | 0.00 | 0.00 | 99 | 1016.9 |
| 20260509104643 | 51 | 115 | 18.0 | 22.0 | 0.00 | 0.00 | 0.00 | 99 | 1016.9 |
| 20260509104140 | 51 | 126 | 15.0 | 18.0 | 0.00 | 0.00 | 0.00 | 99 | 1017.1 |
| 20260509103638 | 51 | 126 | 15.0 | 18.0 | 0.00 | 0.00 | 0.00 | 99 | 1017.1 |
| 20260509103136 | 51 | 113 | 10.0 | 13.0 | 0.00 | 0.00 | 0.00 | 99 | 1017.1 |
| 20260509102633 | 51 | 113 | 10.0 | 13.0 | 0.00 | 0.00 | 0.00 | 99 | 1017.1 |
| 20260509102130 | 52 | 63 | 17.0 | 23.0 | 0.00 | 0.00 | 0.00 | 99 | 1016.9 |
| 20260509101626 | 52 | 63 | 17.0 | 23.0 | 0.00 | 0.00 | 0.00 | 99 | 1016.9 |
| 20260509101123 | 52 | 121 | 13.0 | 15.0 | 0.00 | 0.00 | 0.00 | 99 | 1016.8 |
| 20260509100620 | 52 | 121 | 13.0 | 15.0 | 0.00 | 0.00 | 0.00 | 99 | 1016.8 |
| 20260509100117 | 53 | 127 | 16.0 | 18.0 | 0.00 | 0.00 | 0.00 | 99 | 1016.6 |
| 20260509095614 | 53 | 127 | 16.0 | 18.0 | 0.00 | 0.00 | 0.00 | 99 | 1016.6 |
| 20260509095111 | 52 | 173 | 17.0 | 19.0 | 0.00 | 0.00 | 0.00 | 99 | 1016.6 |
| 20260509094607 | 52 | 173 | 17.0 | 19.0 | 0.00 | 0.00 | 0.00 | 99 | 1016.6 |
| 20260509094105 | 52 | 146 | 22.0 | 25.0 | 0.00 | 0.00 | 0.00 | 99 | 1016.6 |
| 20260509093603 | 52 | 146 | 22.0 | 25.0 | 0.00 | 0.00 | 0.00 | 99 | 1016.6 |
| 20260509093100 | 52 | 160 | 19.0 | 22.0 | 0.00 | 0.00 | 0.00 | 99 | 1016.4 |
| 20260509092558 | 52 | 160 | 19.0 | 22.0 | 0.00 | 0.00 | 0.00 | 99 | 1016.4 |
| 20260509092056 | 52 | 156 | 17.0 | 19.0 | 0.00 | 0.00 | 0.00 | 99 | 1016.6 |
| 20260509091554 | 52 | 156 | 17.0 | 19.0 | 0.00 | 0.00 | 0.00 | 99 | 1016.6 |
| 20260509091050 | 52 | 237 | 9.0 | 11.0 | 0.00 | 0.00 | 0.00 | 99 | 1016.7 |
| 20260509090547 | 52 | 237 | 9.0 | 11.0 | 0.00 | 0.00 | 0.00 | 99 | 1016.7 |
| 20260509090045 | 53 | 154 | 22.0 | 24.0 | 0.00 | 0.00 | 0.00 | 99 | 1016.4 |
| 20260509085542 | 53 | 154 | 22.0 | 24.0 | 0.00 | 0.00 | 0.00 | 99 | 1016.4 |
| 20260509085038 | 52 | 142 | 16.0 | 17.0 | 0.00 | 0.00 | 0.00 | 99 | 1016.8 |
| 20260509084535 | 52 | 142 | 16.0 | 17.0 | 0.00 | 0.00 | 0.00 | 99 | 1016.8 |
| 20260509084032 | 52 | 109 | 12.0 | 17.0 | 0.00 | 0.00 | 0.00 | 99 | 1016.8 |
| 20260509083530 | 52 | 109 | 12.0 | 17.0 | 0.00 | 0.00 | 0.00 | 99 | 1016.8 |
| 20260509083026 | 51 | 156 | 10.0 | 11.0 | 0.00 | 0.00 | 0.00 | 99 | 1017.1 |
| 20260509082524 | 51 | 156 | 10.0 | 11.0 | 0.00 | 0.00 | 0.00 | 99 | 1017.1 |
| 20260509082021 | 52 | 139 | 12.0 | 14.0 | 0.00 | 0.00 | 0.00 | 99 | 1017.1 |
| 20260509081518 | 52 | 139 | 12.0 | 14.0 | 0.00 | 0.00 | 0.00 | 99 | 1017.1 |
| 20260509081014 | 52 | 147 | 13.0 | 15.0 | 0.00 | 0.00 | 0.00 | 99 | 1016.9 |
| 20260509080513 | 52 | 147 | 13.0 | 15.0 | 0.00 | 0.00 | 0.00 | 99 | 1016.9 |
| 20260509080010 | 53 | 168 | 12.0 | 13.0 | 0.00 | 0.00 | 0.00 | 99 | 1017.2 |
| 20260509075507 | 53 | 168 | 12.0 | 13.0 | 0.00 | 0.00 | 0.00 | 99 | 1017.2 |
| 20260509075005 | 53 | 145 | 7.0 | 8.0 | 0.00 | 0.00 | 0.00 | 99 | 1017.2 |
| 20260509074502 | 53 | 145 | 7.0 | 8.0 | 0.00 | 0.00 | 0.00 | 99 | 1017.2 |
| 20260509073958 | 53 | 163 | 6.0 | 8.0 | 0.00 | 0.00 | 0.00 | 99 | 1017.3 |
| 20260509073455 | 53 | 163 | 6.0 | 8.0 | 0.00 | 0.00 | 0.00 | 99 | 1017.3 |
| 20260509072951 | 53 | 154 | 5.0 | 7.0 | 0.00 | 0.00 | 0.00 | 99 | 1017.6 |
| 20260509072449 | 53 | 154 | 5.0 | 7.0 | 0.00 | 0.00 | 0.00 | 99 | 1017.6 |
| 20260509071945 | 53 | 131 | 6.0 | 7.0 | 0.00 | 0.00 | 0.00 | 99 | 1017.6 |
| 20260509071442 | 53 | 131 | 6.0 | 7.0 | 0.00 | 0.00 | 0.00 | 99 | 1017.6 |
| 20260509070940 | 53 | 140 | 8.0 | 9.0 | 0.00 | 0.00 | 0.00 | 99 | 1017.9 |
| 20260509070436 | 53 | 140 | 8.0 | 9.0 | 0.00 | 0.00 | 0.00 | 99 | 1017.9 |
| 20260509065931 | 53 | 135 | 9.0 | 11.0 | 0.00 | 0.00 | 0.00 | 99 | 1017.7 |
| 20260509065428 | 53 | 135 | 9.0 | 11.0 | 0.00 | 0.00 | 0.00 | 99 | 1017.7 |
| 20260509064924 | 51 | 101 | 6.0 | 8.0 | 0.00 | 0.00 | 0.00 | 99 | 1017.9 |
| 20260509064422 | 51 | 101 | 6.0 | 8.0 | 0.00 | 0.00 | 0.00 | 99 | 1017.9 |
| 20260509063920 | 52 | 140 | 5.0 | 6.0 | 0.00 | 0.00 | 0.00 | 99 | 1017.8 |
| 20260509063415 | 52 | 140 | 5.0 | 6.0 | 0.00 | 0.00 | 0.00 | 99 | 1017.8 |
| 20260509062913 | 53 | 138 | 4.0 | 6.0 | 0.00 | 0.00 | 0.00 | 99 | 1017.8 |
| 20260509062410 | 53 | 138 | 4.0 | 6.0 | 0.00 | 0.00 | 0.00 | 99 | 1017.8 |
| 20260509061907 | 52 | 150 | 1.0 | 1.0 | 0.00 | 0.00 | 0.00 | 99 | 1017.7 |
| 20260509061405 | 52 | 150 | 1.0 | 1.0 | 0.00 | 0.00 | 0.00 | 99 | 1017.7 |
| 20260509060901 | 53 | 112 | 3.0 | 3.0 | 0.00 | 0.00 | 0.00 | 99 | 1017.9 |
| 20260509060359 | 53 | 112 | 3.0 | 3.0 | 0.00 | 0.00 | 0.00 | 99 | 1017.9 |
| 20260509055855 | 53 | 94 | 3.0 | 3.0 | 0.00 | 0.04 | 0.04 | 99 | 1018.1 |
| 20260509055350 | 53 | 94 | 3.0 | 3.0 | 0.00 | 0.04 | 0.04 | 99 | 1018.1 |
| 20260509054847 | 53 | 107 | 5.0 | 6.0 | 0.00 | 0.04 | 0.04 | 99 | 1018.1 |
| 20260509054344 | 53 | 107 | 5.0 | 6.0 | 0.00 | 0.04 | 0.04 | 99 | 1018.1 |
| 20260509053842 | 51 | 143 | 5.0 | 6.0 | 0.00 | 0.04 | 0.04 | 99 | 1018.2 |
| 20260509053339 | 51 | 143 | 5.0 | 6.0 | 0.00 | 0.04 | 0.04 | 99 | 1018.2 |
| 20260509052838 | 51 | 104 | 5.0 | 6.0 | 0.00 | 0.04 | 0.04 | 99 | 1018.4 |
| 20260509052335 | 51 | 104 | 5.0 | 6.0 | 0.00 | 0.04 | 0.04 | 99 | 1018.4 |
| 20260509051832 | 52 | 138 | 7.0 | 8.0 | 0.00 | 0.04 | 0.04 | 99 | 1018.2 |
| 20260509051330 | 52 | 138 | 7.0 | 8.0 | 0.00 | 0.04 | 0.04 | 99 | 1018.2 |
| 20260509050826 | 50 | 100 | 5.0 | 6.0 | 0.00 | 0.04 | 0.04 | 99 | 1018.6 |
| 20260509050323 | 50 | 100 | 5.0 | 6.0 | 0.00 | 0.04 | 0.04 | 99 | 1018.6 |
| 20260509045820 | 49 | 93 | 1.0 | 2.0 | 0.00 | 0.04 | 0.04 | 99 | 1018.6 |
| 20260509045317 | 49 | 93 | 1.0 | 2.0 | 0.00 | 0.04 | 0.04 | 99 | 1018.6 |
| 20260509044814 | 50 | 111 | 6.0 | 7.0 | 0.00 | 0.04 | 0.04 | 99 | 1018.7 |
| 20260509044312 | 50 | 111 | 6.0 | 7.0 | 0.00 | 0.04 | 0.04 | 99 | 1018.7 |
| 20260509043808 | 50 | 86 | 2.0 | 2.0 | 0.00 | 0.04 | 0.04 | 99 | 1018.9 |
| 20260509043304 | 50 | 86 | 2.0 | 2.0 | 0.00 | 0.04 | 0.04 | 99 | 1018.9 |
| 20260509042800 | 50 | 153 | 3.0 | 4.0 | 0.00 | 0.04 | 0.04 | 99 | 1018.9 |
| 20260509042257 | 50 | 153 | 3.0 | 4.0 | 0.00 | 0.04 | 0.04 | 99 | 1018.9 |
| 20260509041753 | 51 | 132 | 3.0 | 3.0 | 0.00 | 0.04 | 0.04 | 99 | 1018.9 |
| 20260509041251 | 51 | 132 | 3.0 | 3.0 | 0.00 | 0.04 | 0.04 | 99 | 1018.9 |
| 20260509040749 | 51 | 132 | 2.0 | 2.0 | 0.00 | 0.04 | 0.04 | 99 | 1018.8 |
| 20260509040246 | 51 | 132 | 2.0 | 2.0 | 0.00 | 0.04 | 0.04 | 99 | 1018.8 |
| 20260509035743 | 51 | 129 | 2.0 | 3.0 | 0.00 | 0.04 | 0.04 | 99 | 1018.8 |
| 20260509035239 | 51 | 129 | 2.0 | 3.0 | 0.00 | 0.04 | 0.04 | 99 | 1018.8 |
| 20260509034736 | 52 | 94 | 2.0 | 2.0 | 0.00 | 0.04 | 0.04 | 99 | 1018.8 |
| 20260509034234 | 52 | 108 | 1.0 | 1.0 | 0.00 | 0.04 | 0.04 | 99 | 1018.6 |
| 20260509033731 | 52 | 108 | 1.0 | 1.0 | 0.00 | 0.04 | 0.04 | 99 | 1018.6 |
| 20260509033228 | 52 | 73 | 1.0 | 1.0 | 0.00 | 0.04 | 0.04 | 99 | 1018.7 |
| 20260509032725 | 52 | 73 | 1.0 | 1.0 | 0.00 | 0.04 | 0.04 | 99 | 1018.7 |
| 20260509032222 | 52 | 346 | 2.0 | 2.0 | 0.00 | 0.04 | 0.04 | 99 | 1018.4 |
| 20260509031720 | 52 | 346 | 2.0 | 2.0 | 0.00 | 0.04 | 0.04 | 99 | 1018.4 |
| 20260509031217 | 52 | 343 | 4.0 | 4.0 | 0.00 | 0.04 | 0.04 | 99 | 1018.8 |
| 20260509030715 | 52 | 343 | 4.0 | 4.0 | 0.00 | 0.04 | 0.04 | 99 | 1018.8 |
| 20260509030212 | 53 | 339 | 4.0 | 6.0 | 0.00 | 0.04 | 0.04 | 99 | 1018.6 |
| 20260509025708 | 53 | 339 | 4.0 | 6.0 | 0.00 | 0.04 | 0.04 | 99 | 1018.6 |
| 20260509025204 | 53 | 341 | 7.0 | 8.0 | 0.00 | 0.04 | 0.04 | 99 | 1018.6 |
| 20260509024659 | 53 | 341 | 7.0 | 8.0 | 0.00 | 0.04 | 0.04 | 99 | 1018.6 |
| 20260509024155 | 53 | 351 | 8.0 | 9.0 | 0.00 | 0.04 | 0.04 | 99 | 1018.6 |
| 20260509023654 | 53 | 351 | 8.0 | 9.0 | 0.00 | 0.04 | 0.04 | 99 | 1018.6 |
| 20260509023150 | 53 | 351 | 9.0 | 13.0 | 0.00 | 0.04 | 0.04 | 99 | 1018.6 |
| 20260509022646 | 53 | 351 | 9.0 | 13.0 | 0.00 | 0.04 | 0.04 | 99 | 1018.6 |
| 20260509022144 | 53 | 347 | 12.0 | 13.0 | 0.00 | 0.04 | 0.04 | 99 | 1018.6 |
| 20260509021640 | 53 | 347 | 12.0 | 13.0 | 0.00 | 0.04 | 0.04 | 99 | 1018.6 |
| 20260509021137 | 54 | 340 | 8.0 | 9.0 | 0.00 | 0.04 | 0.04 | 99 | 1018.4 |
| 20260509020636 | 54 | 340 | 8.0 | 9.0 | 0.00 | 0.04 | 0.04 | 99 | 1018.4 |
| 20260509020132 | 54 | 9 | 9.0 | 13.0 | 0.00 | 0.04 | 0.04 | 99 | 1018.3 |
| 20260509015631 | 54 | 9 | 9.0 | 13.0 | 0.00 | 0.04 | 0.04 | 99 | 1018.3 |
| 20260509015128 | 54 | 2 | 6.0 | 7.0 | 0.00 | 0.04 | 0.04 | 99 | 1018.4 |
| 20260509014625 | 54 | 2 | 6.0 | 7.0 | 0.00 | 0.04 | 0.04 | 99 | 1018.4 |
| 20260509014121 | 55 | 115 | 5.0 | 7.0 | 0.00 | 0.04 | 0.04 | 99 | 1018.4 |
| 20260509013619 | 55 | 115 | 5.0 | 7.0 | 0.00 | 0.04 | 0.04 | 99 | 1018.4 |
| 20260509013114 | 55 | 323 | 8.0 | 9.0 | 0.00 | 0.04 | 0.04 | 99 | 1018.2 |
| 20260509012611 | 55 | 323 | 8.0 | 9.0 | 0.00 | 0.04 | 0.04 | 99 | 1018.2 |
| 20260509012108 | 55 | 337 | 6.0 | 7.0 | 0.00 | 0.04 | 0.04 | 99 | 1018.3 |
| 20260509011606 | 55 | 337 | 6.0 | 7.0 | 0.00 | 0.04 | 0.04 | 99 | 1018.3 |
| 20260509011102 | 55 | 342 | 8.0 | 8.0 | 0.00 | 0.04 | 0.04 | 99 | 1018.4 |
| 20260509010600 | 55 | 342 | 8.0 | 8.0 | 0.00 | 0.04 | 0.04 | 99 | 1018.4 |
| 20260509010056 | 55 | 338 | 7.0 | 8.0 | 0.00 | 0.04 | 0.04 | 99 | 1018.3 |
| 20260509005554 | 55 | 338 | 7.0 | 8.0 | 0.00 | 0.04 | 0.04 | 99 | 1018.3 |
| 20260509005050 | 55 | 324 | 7.0 | 8.0 | 0.00 | 0.04 | 0.04 | 99 | 1018.6 |
| 20260509004547 | 55 | 324 | 7.0 | 8.0 | 0.00 | 0.04 | 0.04 | 99 | 1018.6 |
| 20260509004043 | 55 | 10 | 7.0 | 8.0 | 0.00 | 0.04 | 0.04 | 99 | 1018.6 |
| 20260509003542 | 55 | 10 | 7.0 | 8.0 | 0.00 | 0.04 | 0.04 | 99 | 1018.6 |
| 20260509003039 | 55 | 4 | 11.0 | 13.0 | 0.00 | 0.04 | 0.04 | 99 | 1018.3 |
| 20260509002536 | 55 | 4 | 11.0 | 13.0 | 0.00 | 0.04 | 0.04 | 99 | 1018.3 |
| 20260509002034 | 55 | 354 | 8.0 | 8.0 | 0.00 | 0.04 | 0.04 | 99 | 1018.4 |
| 20260509001531 | 55 | 354 | 8.0 | 8.0 | 0.00 | 0.04 | 0.04 | 99 | 1018.4 |
| 20260509001027 | 56 | 338 | 8.0 | 9.0 | 0.00 | 0.04 | 0.04 | 99 | 1018.7 |
| 20260509000525 | 56 | 338 | 8.0 | 9.0 | 0.00 | 0.04 | 0.04 | 99 | 1018.7 |
| 20260509000021 | 56 | 358 | 7.0 | 9.0 | 0.00 | 0.04 | 0.04 | 99 | 1018.4 |
| 20260508235519 | 56 | 358 | 7.0 | 9.0 | 0.00 | 0.04 | 0.04 | 99 | 1018.4 |
| 20260508235015 | 56 | 348 | 9.0 | 10.0 | 0.00 | 0.04 | 0.04 | 99 | 1018.3 |
| 20260508234513 | 56 | 348 | 9.0 | 10.0 | 0.00 | 0.04 | 0.04 | 99 | 1018.3 |
| 20260508234010 | 57 | 330 | 5.0 | 7.0 | 0.00 | 0.04 | 0.04 | 99 | 1018.4 |
| 20260508233509 | 57 | 330 | 5.0 | 7.0 | 0.00 | 0.04 | 0.04 | 99 | 1018.4 |
| 20260508233006 | 56 | 3 | 6.0 | 8.0 | 0.00 | 0.04 | 0.04 | 99 | 1018.4 |
| 20260508232503 | 56 | 3 | 6.0 | 8.0 | 0.00 | 0.04 | 0.04 | 99 | 1018.4 |
| 20260508232000 | 57 | 345 | 11.0 | 13.0 | 0.00 | 0.04 | 0.04 | 99 | 1018.4 |
| 20260508231457 | 57 | 345 | 11.0 | 13.0 | 0.00 | 0.04 | 0.04 | 99 | 1018.4 |
| 20260508230954 | 57 | 357 | 9.0 | 9.0 | 0.00 | 0.04 | 0.04 | 99 | 1018.6 |
| 20260508230451 | 57 | 357 | 9.0 | 9.0 | 0.00 | 0.04 | 0.04 | 99 | 1018.6 |
| 20260508225948 | 57 | 325 | 3.0 | 4.0 | 0.00 | 0.04 | 0.04 | 99 | 1018.7 |
| 20260508225445 | 57 | 325 | 3.0 | 4.0 | 0.00 | 0.04 | 0.04 | 99 | 1018.7 |
| 20260508224942 | 56 | 295 | 6.0 | 7.0 | 0.00 | 0.04 | 0.04 | 99 | 1018.7 |
| 20260508224439 | 56 | 295 | 6.0 | 7.0 | 0.00 | 0.04 | 0.04 | 99 | 1018.7 |
| 20260508223937 | 57 | 272 | 6.0 | 7.0 | 0.00 | 0.04 | 0.04 | 99 | 1018.6 |
| 20260508223434 | 57 | 272 | 6.0 | 7.0 | 0.00 | 0.04 | 0.04 | 99 | 1018.6 |
| 20260508222931 | 57 | 309 | 4.0 | 4.0 | 0.00 | 0.04 | 0.04 | 99 | 1018.6 |
| 20260508222429 | 57 | 309 | 4.0 | 4.0 | 0.00 | 0.04 | 0.04 | 99 | 1018.6 |
| 20260508221925 | 57 | 285 | 7.0 | 8.0 | 0.00 | 0.04 | 0.04 | 99 | 1018.6 |
| 20260508221421 | 57 | 285 | 7.0 | 8.0 | 0.00 | 0.04 | 0.04 | 99 | 1018.6 |
| 20260508220918 | 57 | 274 | 4.0 | 4.0 | 0.00 | 0.04 | 0.04 | 99 | 1018.4 |
| 20260508220414 | 57 | 274 | 4.0 | 4.0 | 0.00 | 0.04 | 0.04 | 99 | 1018.4 |
| 20260508215910 | 59 | 5 | 4.0 | 7.0 | 0.00 | 0.04 | 0.04 | 99 | 1018.4 |
| 20260508215408 | 59 | 5 | 4.0 | 7.0 | 0.00 | 0.04 | 0.04 | 99 | 1018.4 |
| 20260508214904 | 57 | 348 | 7.0 | 9.0 | 0.00 | 0.04 | 0.04 | 99 | 1018.4 |
| 20260508214402 | 57 | 348 | 7.0 | 9.0 | 0.00 | 0.04 | 0.04 | 99 | 1018.4 |
| 20260508213857 | 60 | 351 | 9.0 | 10.0 | 0.00 | 0.04 | 0.04 | 99 | 1018.4 |
| 20260508213355 | 60 | 351 | 9.0 | 10.0 | 0.00 | 0.04 | 0.04 | 99 | 1018.4 |
| 20260508212850 | 57 | 332 | 8.0 | 8.0 | 0.00 | 0.04 | 0.04 | 99 | 1018.8 |
| 20260508212347 | 57 | 332 | 8.0 | 8.0 | 0.00 | 0.04 | 0.04 | 99 | 1018.8 |
| 20260508211843 | 57 | 277 | 9.0 | 9.0 | 0.00 | 0.04 | 0.04 | 99 | 1018.9 |
| 20260508211339 | 57 | 277 | 9.0 | 9.0 | 0.00 | 0.04 | 0.04 | 99 | 1018.9 |
| 20260508210837 | 60 | 116 | 0.0 | 1.0 | 0.00 | 0.04 | 0.04 | 99 | 1019.1 |
| 20260508210333 | 60 | 116 | 0.0 | 1.0 | 0.00 | 0.04 | 0.04 | 99 | 1019.1 |
| 20260508205830 | 59 | 138 | 3.0 | 3.0 | 0.00 | 0.04 | 0.04 | 99 | 1018.8 |
| 20260508205326 | 59 | 138 | 3.0 | 3.0 | 0.00 | 0.04 | 0.04 | 99 | 1018.8 |
| 20260508204822 | 60 | 157 | 5.0 | 6.0 | 0.00 | 0.04 | 0.04 | 99 | 1018.7 |
| 20260508204319 | 60 | 157 | 5.0 | 6.0 | 0.00 | 0.04 | 0.04 | 99 | 1018.7 |
| 20260508203815 | 60 | 270 | 4.0 | 6.0 | 0.00 | 0.04 | 0.04 | 99 | 1018.8 |
| 20260508203312 | 60 | 270 | 4.0 | 6.0 | 0.00 | 0.04 | 0.04 | 99 | 1018.8 |
| 20260508202807 | 61 | 151 | 2.0 | 6.0 | 0.00 | 0.04 | 0.04 | 99 | 1018.9 |
| 20260508202307 | 61 | 151 | 2.0 | 6.0 | 0.00 | 0.04 | 0.04 | 99 | 1018.9 |
| 20260508201802 | 62 | 99 | 2.0 | 3.0 | 0.00 | 0.04 | 0.04 | 99 | 1019.1 |
| 20260508201259 | 62 | 99 | 2.0 | 3.0 | 0.00 | 0.04 | 0.04 | 99 | 1019.1 |